sat.trackr.live / text

‹ back to catalog

STARLINK-3350

NORAD 51105 · 2022-005B

PAYLOAD ACTIVE UNKNOWN

§ Identity

Operator
Country
US
Launch date
2022-01-19
Launch site
AFETR
Launch vehicle
Mass (kg)
RCS (m²)

Purposes: comms

External: N2YO · Heavens-Above · Gunter

§ Orbital elements

Epoch: 2026-05-25T03:42:56.201760Z

Period
95.44 min
Inclination
53.2139°
Eccentricity
0.0001244
Mean motion
15.08849719 rev/d
Perigee alt
538.9 km
Apogee alt
540.6 km
Semi-major
6,917.9 km
B*
1.7470e-4
RAAN
305.8561°
Arg perigee
110.8929°
Mean anomaly
249.2197°
Rev number
24,042

§ Raw data

STARLINK-33501 51105U 22005B   26145.15481715  .00002494  00000+0  17470-3 0  99912 51105  53.2139 305.8561 0001244 110.8929 249.2197 15.08849719240424

JSON: /api/v1/satellites/51105 · /tle

For live sub-satellite position, see the globe view (requires WebGL).

§ Visibility from observer

Set your observer location to see the next 7 days of passes ≥ 10°. The values pass through the URL so the page stays shareable.

No JS? Fill the form by hand. The geolocation button needs JavaScript.